Location: Charbonni�res
(45.9952°N, 2.9982°E)
Time: 18:30:58
(UTC+00:00)

Cosmos 1937 Rocket - Pass Details

Date: 29 November 2020
Orbit: 745 x 781 km, 74.0° (Epoch: 23 January)

Event Time Altitude Azimuth Distance (km) Brightness Sun altitude
Rises 05:01:56 0° 189° (S) 3,176 6.7 -21.2°
Reaches altitude 10° 05:04:18 10° 186° (S) 2,259 6.0 -20.8°
Maximum altitude 05:09:19 60° 107° (ESE) 857 4.0 -19.9°
Drops below altitude 10° 05:14:26 10° 28° (NNE) 2,294 6.2 -19.0°
Sets 05:16:50 0° 25° (NNE) 3,229 6.9 -18.6°
